Tracking 17155 objects as of 29-July-2015
HD Live streaming from Space Station

COSMOS 2251 DEB

Track COSMOS 2251 DEB now!
10-day predictions
COSMOS 2251 DEB is classified as:


NORAD ID: 34131
Int'l Code: 1993-036LC
Perigee: 713.5 km
Apogee: 722.6 km
Inclination: 74.1 °
Period: 99.0 minutes
Semi major axis: 7089 km
RCS: 0.018 m2 (small)
Launch date: June 16, 1993
Source: Commonwealth of Independent States (former USSR) (CIS)

Note: This is SATELLITE DEBRIS
Your satellite tracking list
Your tracking list is empty





NASA's NSSDC Master Catalog

Two Line Element Set (TLE):
1 34131U 93036LC  15208.87881707  .00002566  00000-0  60801-3 0  9992
2 34131 074.1234 002.0722 0006457 196.0318 288.6273 14.54521224339223

Source of the keplerian elements: AFSPC

N2YO: 342